Regional Weather Roundup
Issued by NWS

Home | Current Version | Previous Version | Graphics & Text | Print | Product List | Glossary On
Versions: 1 2 3 4 5 6 7 8 9 10 11 12 13 14 15 16 17 18 19 20 21 22 23 24 25 26 27 28 29 30 31 32 33 34 35 36 37 38 39 40 41 42 43 44 45 46 47 48 49 50
000
ASUS43 KMPX 070601
RWRMN
WEATHER ROUNDUP FOR MINNESOTA
NATIONAL WEATHER SERVICE TWIN CITIES/CHANHASSEN MN
100 AM CDT TUE JUL 07 2015


NOTE: "FAIR" INDICATES FEW OR NO CLOUDS BELOW 12,000 FEET WITH NO
SIGNIFICANT WEATHER AND/OR OBSTRUCTIONS TO VISIBILITY. N/A MEANS
CURRENT SKY AND/OR WEATHER CONDITIONS ARE NOT AVAILABLE.

MNZ060>063-068>070-070700-
   Twin Cities Metro

CITY           SKY/WX    TMP DP  RH WIND       PRES   REMARKS
TWIN CITIES    PTCLDY    59  48  67 N12       30.05S
6HR MIN TEMP:  58; 6HR MAX TEMP:  72;

ST PAUL        CLOUDY    58  48  69 NW10      30.05S
CRYSTAL        CLEAR     57  49  74 NW3       30.05R
BLAINE         CLEAR     55  52  88 NW7       30.06S
LAKEVILLE      CLEAR     55  48  76 NW6       30.05S
EDEN PRAIRIE   CLEAR     58  49  72 N7        30.05S
6HR MIN TEMP:  58; 6HR MAX TEMP:  72;

SOUTH ST PAUL  PTCLDY    59  47  63 N6        30.05S
LAKE ELMO      FAIR      55  50  82 NW3       30.06R
$$
MNZ001>005-007-008-013>017-022>024-027-028-070700-
   Northwest Minnesota

CITY           SKY/WX    TMP DP  RH WIND       PRES   REMARKS
BEMIDJI        CLEAR     46  45  93 W3        30.13S
HALLOCK        CLEAR     48  46  93 CALM      30.15R
ROSEAU         CLEAR     52  45  76 W5        30.13S
WARROAD        CLEAR     50  45  81 W6        30.13R
THIEF RVR FALL CLEAR     48  46  93 CALM      30.16R
CROOKSTON      CLEAR     50  46  87 W3        30.17R
FOSSTON        CLEAR     43  39  87 CALM      30.16S
DETROIT LAKES  CLEAR     50  45  81 NW5       30.16S
MOORHEAD       CLEAR     48  45  87 CALM      30.17R
PARK RAPIDS    CLEAR     52  46  80 NW5       30.12F
MAHNOMEN       FAIR      47  44  88 NW3       30.15S
$$
MNZ006-009>011-018-025>026-070700-
   North Central Minnesota

CITY           SKY/WX    TMP DP  RH WIND       PRES   REMARKS
BAUDETTE       CLEAR     48  45  89 SW5       30.11R
FLAG ISLAND    CLEAR     55  45  67 W12       30.10R
INTL FALLS     CLOUDY    46  44  93 CALM      30.10R
6HR MIN TEMP:  46; 6HR MAX TEMP:  58;

WASKISH        CLOUDY    55  48  76 NW3       30.12S
BIG FORK       CLEAR     45  41  87 CALM      30.11S
LONGVILLE      CLEAR     52  45  76 CALM      30.11S
GRAND RAPIDS   CLEAR     50  41  71 N7        30.09F
CRANE LAKE     CLOUDY    52  45  76 W1        30.10R
COOK           CLOUDY    52  45  76 CALM      30.09S
WALKER         FAIR      49  46  87 CALM      30.12S
$$
MNZ012-019>021-037-070700-
   Northeast Minnesota

CITY           SKY/WX    TMP DP  RH WIND       PRES   REMARKS
DULUTH         CLOUDY    55  44  66 N8        30.05R
6HR MIN TEMP:  55; 6HR MAX TEMP:  63;

ELY            CLOUDY    52  45  76 NW6       30.06S
HIBBING        CLOUDY    54  42  64 N10       30.08S
DULUTH HARBOR    N/A     61  50  67 N10       30.06R
TWO HARBORS    CLOUDY    57  45  62 CALM      30.03R
SILVER BAY     MOCLDY    54  45  71 CALM      30.02S
GRAND MARAIS     N/A     49  46  90 VRB3      30.00F
G MARAIS ARPRT CLEAR     48  39  71 NW7       30.01F
$$
MNZ029>031-032-039>041-046>048-054>057-064-070700-
   West Central Minnesota

CITY           SKY/WX    TMP DP  RH WIND       PRES   REMARKS
FERGUS FALLS   CLEAR     48  45  87 N6        30.16R
WHEATON        CLEAR     50  46  87 NW5       30.17S
MORRIS         FAIR      52  48  87 NW7       30.13S
ALEXANDRIA     CLEAR     53  45  74 N7        30.14R
ELBOW LAKE     FAIR      53  47  81 N6        30.14S
WADENA         PTCLDY    46  43  87 NW7       30.13R
GLENWOOD       CLEAR     50  45  81 N3        30.13S
APPLETON       CLEAR     54  48  82 NW7       30.14S
BENSON         CLEAR     48  46  93 N3        30.13S
ORTONVILLE     CLEAR     54  46  76 N7        30.15S
MADISON        CLEAR     54  48  82 N7        30.14S
WILLMAR        FAIR      54  48  82 N6        30.13S
$$
MNZ033>034-036-042>043-049>051-058-059-070700-
   Central Minnesota

CITY           SKY/WX    TMP DP  RH WIND       PRES   REMARKS
ST CLOUD       CLEAR     53  47  79 NW3       30.09R
6HR MIN TEMP:  53; 6HR MAX TEMP:  66;

SAUK CENTRE    FAIR      52  45  77 N7        30.12S
PAYNESVILLE    CLEAR     49  46  88 W5        30.11S
AITKIN         CLEAR     48  43  81 NW3       30.07F
PINE RIVER     CLEAR     55  45  67 NW9       30.14R
BRAINERD       MOCLDY    55  48  77 N8        30.10R
STAPLES        CLEAR     48  45  87 NW6       30.12R
LONG PRAIRIE   FAIR      50  43  76 NW3       30.13R
LITTLE FALLS   PTCLDY    52  45  76 NW3       30.10S
LITCHFIELD     CLEAR     54  48  82 NW6       30.10S
BUFFALO        CLEAR     55  46  73 NW6       30.08F
MAPLE LAKE     CLEAR     54  49  83 NW5       30.09S
$$
MNZ037-044-045-052-053-070700-
   East Central Minnesota

CITY           SKY/WX    TMP DP  RH WIND       PRES   REMARKS
PRINCETON      CLEAR     54  48  82 CALM      30.08S
MORA           PTCLDY    54  45  71 CALM      30.09R
CAMBRIDGE      CLEAR     55  45  67 CALM      30.05S
MOOSE LAKE     MOCLDY    54  46  76 CALM      30.05R
HINCKLEY       FAIR      52  48  87 NW5       30.07R
CLOQUET        CLOUDY    54  43  66 NW6       30.06S
MCGREGOR       MOCLDY    54  46  76 NW8       30.08S
$$
MNZ071>073-080-081-089-090-097-098-070700-
   Southwest Minnesota

CITY           SKY/WX    TMP DP  RH WIND       PRES   REMARKS
GRANITE FALLS  CLEAR     51  49  90 NW3       30.14S
CANBY          CLEAR     52  49  89 NW5       30.15S
MARSHALL       CLEAR     54  46  76 N8        30.12R
REDWOOD FALLS  CLEAR     55  48  77 N8        30.11R
OLIVIA         CLEAR     50  45  81 NW5       30.11S
PIPESTONE      CLEAR     55  50  82 CALM      30.14S
WINDOM         CLEAR     52  48  87 NW7       30.12R
WORTHINGTON    CLEAR     52  46  82 N7        30.12S
JACKSON        CLEAR     54  50  87 N5        30.12R
TRACY          CLEAR     55  51  86 N7        30.13R
SLAYTON        CLEAR     54  50  87 NW6       30.14R
$$
MNZ065>067-074>077-082>085-091>093-070700-
   South Central Minnesota

CITY           SKY/WX    TMP DP  RH WIND       PRES   REMARKS
MANKATO        CLEAR     55  46  71 NW8       30.07S
NEW ULM        CLEAR     54  48  82 NW7       30.10R
ST JAMES       CLEAR     54  50  87 NW6       30.10S
FAIRMONT       CLEAR     55  46  71 N7        30.08R
GLENCOE        CLEAR     54  49  83 NW6       30.08S
FARIBAULT      CLEAR     55  52  88 NW6       30.05S
OWATONNA       CLEAR     55  50  82 N6        30.05S
WASECA         CLEAR     54  48  82 N8        30.07R
ALBERT LEA     CLEAR     57  52  82 N7        30.04S
$$
MNZ078>079-086>088-094>096-070700-
   Southeast Minnesota

CITY           SKY/WX    TMP DP  RH WIND       PRES   REMARKS
ROCHESTER      MOCLDY    58  51  78 N13       30.02R
6HR MIN TEMP:  58; 6HR MAX TEMP:  66;

RED WING       CLEAR     59  48  67 N7        30.01S
DODGE CENTER   PTCLDY    57  52  82 N9        30.03S
WINONA         CLOUDY    61  55  82 N10G16    29.98S HAZE
AUSTIN         MOCLDY    61  52  72 N9G18     30.02S
PRESTON        CLOUDY    59  54  83 N10G20    30.01R
$$
ABBREVIATIONS USED IN REMARKS
   TC - TEMPERATURES IN CELSIUS
  WCI - WIND CHILL INDEX
   HX - HEAT INDEX
  VSB - VISIBILITY
$$


USA.gov is the U.S. government's official web portal to all federal, state and local government web resources and services.